Location: Unspecified
(0.0000°N, 0.0000°E)
Time: 21:05:53
(UTC+00:00)

Vanguard 2 Rocket - Pass Details

Date: 10 December 2017
Orbit: 556 x 3326 km, 32.9° (Epoch: 15 January)

Event Time Altitude Azimuth Distance (km) Brightness Sun altitude
Rises 03:00:12 0° 313° (NW) 7,247 - -39.0°
Reaches altitude 10° 03:05:40 10° 318° (NW) 6,061 - -37.8°
Exits shadow 03:18:06 42° 346° (NNW) 3,396 9.4 -35.1°
Maximum altitude 03:22:57 52° 29° (NNE) 2,754 9.1 -34.1°
Drops below altitude 10° 03:33:28 10° 103° (ESE) 3,855 10.9 -31.7°
Sets 03:36:06 0° 108° (ESE) 4,535 11.6 -31.1°
